DMSP 5D-2 F13 DEB

基本信息
目录编号:
42283
目录名称:
DMSP 5D-2 F13 DEB
国际标识:
1995-015GZ
轨道中心:
EARTH
物体状态:
已陨落(2024-12-10)
发射日期:
1995-03-24 UTC
轨道信息
数据来源: 国际轨道数据
星历时间: 2024-12-03T18:38:55+0800
半长轴: 6740.34km
偏心率: 0.0021599
轨道倾角: 98.616°
近地点辐角: 341.916°
升交点赤经: 110.945°
平近点角: 18.133°
近地点: 347.646km
远地点: 376.764km
周期: 91.787分钟
每日圈数: 15.688454
详细信息
发射场:
AFWTR
轨道高度:
LEO
数据来源:
AOE Integration Group
参考系:
TEME
时间系统:
UTC
历元类型:
SGP4
2D轨道图
3D轨道图
轨道高度分析图
轨道倾角分析图
轨道综合分析图
查看轨道综合分析图